cn3x.com.cn alexa rank chart, cn3x.com.cn alexa rank daily changes

cn3x.com.cn alexa rank chart, cn3x.com.cn alexa rank daily changes

cn3x.com.cn
Actual rank:
57 242

RANK HISTORY

Date Rank Diff
2017/01/20 57 242 +472
2017/01/19 56 770 +233
2017/01/18 56 537 +1 504
2017/01/17 55 033 +324
2017/01/16 54 709 -1 249
2017/01/15 55 958 +1 822
2017/01/14 54 136 +1 532
2017/01/13 52 604 +1 731
2017/01/12 50 873 +2 653
2017/01/11 48 220 +264
2017/01/10 47 956 +1 013
2017/01/09 46 943 -644
2017/01/08 47 587 -869
2017/01/07 48 456 +546
2017/01/06 47 910 -1 043
2017/01/05 48 953 +67
2017/01/04 48 886 -560
2017/01/03 49 446 -960
2017/01/02 50 406 -1 611
2017/01/01 52 017 -1 228
2016/12/31 53 245 +62
2016/12/30 53 183 +1 576
2016/12/29 51 607 -438
2016/12/28 52 045 -706
2016/12/27 52 751 -563
2016/12/26 53 314 +180
2016/12/25 53 134 -1 369
2016/12/24 54 503 -574
2016/12/23 55 077 +481
2016/12/22 54 596 +737
2016/12/21 53 859 +143
2016/12/20 53 716 -448
2016/12/19 54 164 -400
2016/12/18 54 564 -1 998
2016/12/17 56 562 -438
2016/12/16 57 000 +3 903
2016/12/15 53 097 +36
2016/12/14 53 061 -2 033
2016/12/13 55 094 -2 349
2016/12/12 57 443 -1 344
2016/12/11 58 787 -2 596
2016/12/10 61 383 +813
2016/12/09 60 570 +503
2016/12/08 60 067 +4 076
2016/12/07 55 991 -655
2016/12/06 56 646 +387
2016/12/05 56 259 -370
2016/12/04 56 629 -2 007
2016/12/02 58 636 +1 929
2016/12/01 56 707 +3 930
2016/11/30 52 777 -2 040
2016/11/29 54 817 +1 889
2016/11/28 52 928 +1 381
2016/11/27 51 547 -1 047
2016/11/26 52 594 -2 529
2016/11/25 55 123 +825
2016/11/24 54 298 -38
2016/11/23 54 336

WIDGET FOR YOUR SITE

DOMAINS WITH THE NEAREST RANK

Domain Rank
outreach.io 57 237
wallpart.com 57 238
bpm-power.com 57 239
hrmdirect.com 57 240
puc-rio.br 57 241
cn3x.com.cn 57 242
dailyvibes.org 57 243
clickbd.com 57 244
mrfdev.com 57 245
jpfans.com 57 246
kmeiju.net 57 247

DOMAINS WITH THE NEAREST RANK BY TLD .com.cn

Domain Rank
01mov.com.cn 56 338
wacom.com.cn 56 442
adidas.com.cn 56 585
guitarworld.com.cn 56 863
bcia.com.cn 57 133
cn3x.com.cn 57 242
epubit.com.cn 58 755
autouu.com.cn 59 486
nd.com.cn 59 557
fjnx.com.cn 60 311
alibaba.com.cn 60 613